• MPC Preparation (Info)

  • MPEC 2016-N75 : 2016 NX22

    The following Minor Planet Electronic Circular may be linked-to from your own Web pages, but must not otherwise be redistributed electronically.

    A form allowing access to any MPEC is at the bottom of this page.


    Read MPEC 2016-N74 Read MPEC 2016-N76


    M.P.E.C. 2016-N75                                Issued 2016 July 11, 17:00 UT
    
         The Minor Planet Electronic Circulars contain information on unusual
             minor planets and routine data on comets.  They are published
        on behalf of Division F of the International Astronomical Union by the
              Minor Planet Center, Smithsonian Astrophysical Observatory,
                              Cambridge, MA 02138, U.S.A.
    
                 Prepared using the Tamkin Foundation Computer Network
    
                                  MPC@CFA.HARVARD.EDU
                URL https://www.minorplanetcenter.net/    ISSN 1523-6714
    
                                       2016 NX22
    
    Observations:
         K16N22X* C2016 07 09.20207 17 45 17.56 +09 43 38.8          20.4 VqEN075G96
         K16N22X  C2016 07 09.20844 17 45 17.95 +09 43 35.3          21.0 VqEN075G96
         K16N22X  C2016 07 09.21480 17 45 18.28 +09 43 31.6                qEN075G96
         K16N22X  C2016 07 09.22117 17 45 18.70 +09 43 27.8          19.9 VqEN075G96
         K16N22X  C2016 07 09.30524 17 45 23.52 +09 42 40.0          21.0 VqEN075G96
         K16N22X  C2016 07 09.31183 17 45 23.95 +09 42 35.5                qEN075G96
         K16N22X  C2016 07 09.32503 17 45 24.77 +09 42 27.6                qEN075G96
         K16N22X  C2016 07 09.43911 17 45 34.044+09 41 33.46         20.8 wLEN075F51
         K16N22X  C2016 07 09.45076 17 45 34.723+09 41 26.27         20.8 wLEN075F51
         K16N22X  C2016 07 09.46239 17 45 35.422+09 41 19.06         20.7 wLEN075F51
         K16N22X  C2016 07 10.23151 17 46 43.64 +09 32 58.4          20.8 VqEN075G96
         K16N22X  C2016 07 10.23800 17 46 44.04 +09 32 54.0          21.0 VqEN075G96
         K16N22X  C2016 07 10.25096 17 46 44.95 +09 32 44.8          20.9 VqEN075G96
         K16N22X  C2016 07 11.20207 17 48 16.04 +09 21 01.5          20.3 VqEN075G96
         K16N22X  C2016 07 11.20625 17 48 16.36 +09 20 58.3          21.4 VqEN075I52
         K16N22X  C2016 07 11.20907 17 48 16.56 +09 20 55.8          20.7 VqEN075G96
         K16N22X  C2016 07 11.21602 17 48 17.10 +09 20 50.5          20.5 VqEN075G96
         K16N22X  C2016 07 11.21963 17 48 17.42 +09 20 47.7          21.2 VqEN075I52
         K16N22X  C2016 07 11.22296 17 48 17.61 +09 20 44.5          20.3 VqEN075G96
    
    Observer details:
    F51 Pan-STARRS 1, Haleakala.  Observers B. Gibson, T. Goggia, N. Primak,
        A. Schultz, M. Willman.  Measurers K. Chambers, S. Chastel, L. Denneau,
        H. Flewelling, M. Huber, E. Lilly, E. Magnier, R. Wainscoat, C. Waters,
        R. Weryk.  1.8-m Ritchey-Chretien + CCD.
    G96 Mt. Lemmon Survey.  Observer D. C. Fuls.  Measurers E. J. Christensen,
        D. C. Fuls, A. R. Gibbs, A. D. Grauer, J. A. Johnson, R. A. Kowalski,
        S. M. Larson, G. J. Leonard, R. G. Matheny, R. L. Seaman, F. C. Shelly.
        1.5-m reflector + 10K CCD.
    I52 Steward Observatory, Mt. Lemmon Station.  Observer R. A. Kowalski.
        Measurers E. J. Christensen, D. C. Fuls, A. R. Gibbs, A. D. Grauer,
        J. A. Johnson, R. A. Kowalski, S. M. Larson, G. J. Leonard, R. G. Matheny,
        R. L. Seaman, F. C. Shelly.  1.0-m reflector + CCD.
    
    Orbital elements:
    2016 NX22                                                Earth MOID = 0.0323 AU
    Epoch 2016 July 31.0 TT = JDT 2457600.5                 MPC
    M 356.33214              (2000.0)            P               Q
    n   0.26087483     Peri.  196.14947     +0.80863172     +0.57257349
    a   2.4257605      Node   128.13123     -0.51896981     +0.80245889
    e   0.5729493      Incl.    9.89582     -0.27710121     +0.16798611
    P   3.78           H   23.3           G   0.15           U   6
    Residuals in seconds of arc
    160709 G96  0.1-  0.1+    160709 F51  0.1-  0.0     160711 I52  0.0   0.3+
    160709 G96  0.2+  0.1+    160709 F51  0.2-  0.0     160711 G96  0.3-  0.0
    160709 G96  0.4-  0.0     160709 F51  0.1-  0.1+    160711 G96  0.1-  0.1+
    160709 G96  0.4+  0.3-    160710 G96  0.0   0.2-    160711 I52  0.6+  0.2+
    160709 G96  0.2-  0.4+    160710 G96  0.4-  0.2-    160711 G96  0.4-  0.4-
    160709 G96  0.4+  0.2-    160710 G96  0.4+  0.6-
    160709 G96  0.8+  0.1-    160711 G96  0.0   0.2+
    
    Ephemeris:
    2016 NX22                a,e,i = 2.43, 0.57, 10                  q = 1.0359
    Date    TT    R. A. (2000) Decl.     Delta      r     Elong.  Phase     V
    2016 06 11    17 34 33.6 +07 42 47   0.3215  1.3014   148.9    23.7    22.5
    ...
    2016 06 26    17 36 25.4 +09 57 31   0.2199  1.2034   145.0    29.0    21.7
    ...
    2016 07 04    17 40 06.5 +10 12 24   0.1715  1.1573   142.4    32.4    21.2
    ...
    2016 07 10    17 46 22.8 +09 35 58   0.1370  1.1265   141.1    34.5    20.7
    2016 07 11    17 47 55.0 +09 24 07   0.1314  1.1217   141.0    34.8    20.6
    2016 07 12    17 49 38.4 +09 10 10   0.1258  1.1170   140.9    35.0    20.5
    ...
    2016 07 18    18 05 33.3 +06 45 34   0.09317 1.0913   142.2    34.8    19.8
    ...
    2016 07 26    19 00 27.7 -02 28 25   0.05360 1.0640   153.8    24.9    18.2
    ...
    2016 08 10    01 59 20.7 -33 08 58   0.05278 1.0372   115.2    62.2    19.2
    
    A. U. Tomatic                (C) Copyright 2016 MPC           M.P.E.C. 2016-N75
    

    Read MPEC 2016-N74 Read MPEC 2016-N76


    MPEC number:

    Enter an MPEC number in one of the following forms:

    • 1997-B01 (the full form)
    • J97B01 (the packed version of the full form)
    • B01 (the abbreviated form)